When you browse on this site, cookies collect data to enhance your experience and personalize the content and advertising you see.
Visit our Privacy Policy to learn more. By continuing to use the site, you agree to this use of cookies and data.
  • în România
  • Lista ţărilor
  • Pe 7 zile
  • Temperatura apei
  • Meteo pe hartă
  • Widget-uri
  • user-avatar
    Intrare

    Meteo pe oră la Świdnica

    Astăzi, 24 August, Sâmbătă

    Timp Temperatura Precipitaţii Vânt Presiune Umiditate
    00:00 +18°C° 0 mm 1 m/s 744 mmHg 87%
    01:00 +15°C° 0 mm 0 m/s 744 mmHg 89%
    02:00 +16°C° 0 mm 1 m/s 744 mmHg 90%
    03:00 +16°C° 0 mm 1 m/s 744 mmHg 92%
    04:00 +16°C° 0 mm 1 m/s 744 mmHg 94%
    05:00 +18°C° 0 mm 1 m/s 744 mmHg 92%
    06:00 +19°C° 0 mm 1 m/s 744 mmHg 89%
    07:00 +18°C° 0 mm 2 m/s 744 mmHg 87%
    08:00 +20°C° 0 mm 2 m/s 744 mmHg 81%
    09:00 +21°C° 0 mm 3 m/s 744 mmHg 75%
    10:00 +24°C° 0 mm 3 m/s 744 mmHg 69%
    11:00 +25°C° 0 mm 3 m/s 744 mmHg 66%
    12:00 +26°C° 0 mm 3 m/s 744 mmHg 63%
    13:00 +27°C° 0 mm 3 m/s 743 mmHg 60%
    14:00 +27°C° 0.1 mm 3 m/s 743 mmHg 60%
    15:00 +27°C° 0.1 mm 4 m/s 743 mmHg 61%
    16:00 +27°C° 0.1 mm 4 m/s 743 mmHg 61%
    17:00 +26°C° 0 mm 3 m/s 742 mmHg 66%
    18:00 +24°C° 0 mm 3 m/s 742 mmHg 70%
    19:00 +22°C° 0 mm 3 m/s 742 mmHg 75%
    20:00 +21°C° 0 mm 3 m/s 742 mmHg 77%
    21:00 +20°C° 0 mm 2 m/s 742 mmHg 78%
    22:00 +20°C° 0 mm 2 m/s 742 mmHg 80%
    23:00 +19°C° 0 mm 2 m/s 742 mmHg 82%

    Mâine, 25 August, Duminică

    Timp Temperatura Precipitaţii Vânt Presiune Umiditate
    00:00 +19°C° 0 mm 2 m/s 742 mmHg 84%
    01:00 +18°C° 0 mm 2 m/s 742 mmHg 86%
    02:00 +18°C° 0 mm 2 m/s 742 mmHg 87%
    03:00 +18°C° 0 mm 2 m/s 742 mmHg 89%
    04:00 +17°C° 0 mm 2 m/s 742 mmHg 90%
    05:00 +18°C° 0.1 mm 2 m/s 742 mmHg 88%
    06:00 +18°C° 0.1 mm 2 m/s 742 mmHg 86%
    07:00 +19°C° 0.1 mm 2 m/s 741 mmHg 83%
    08:00 +21°C° 0 mm 2 m/s 742 mmHg 78%
    09:00 +22°C° 0 mm 3 m/s 742 mmHg 73%
    10:00 +25°C° 0 mm 3 m/s 742 mmHg 68%
    11:00 +26°C° 0.1 mm 3 m/s 742 mmHg 64%
    12:00 +27°C° 0.1 mm 3 m/s 742 mmHg 61%
    13:00 +28°C° 0.1 mm 3 m/s 741 mmHg 57%
    14:00 +28°C° 0.2 mm 3 m/s 741 mmHg 59%
    15:00 +28°C° 0.2 mm 3 m/s 741 mmHg 60%
    16:00 +28°C° 0.2 mm 2 m/s 741 mmHg 61%
    17:00 +27°C° 0 mm 2 m/s 741 mmHg 66%
    18:00 +25°C° 0 mm 2 m/s 741 mmHg 72%
    19:00 +24°C° 0 mm 1 m/s 740 mmHg 77%
    20:00 +23°C° 0.2 mm 1 m/s 741 mmHg 79%
    21:00 +23°C° 0.2 mm 1 m/s 741 mmHg 81%
    22:00 +22°C° 0.2 mm 1 m/s 741 mmHg 83%
    23:00 +22°C° 0 mm 1 m/s 741 mmHg 83%

    Poimâine, 26 August, Luni

    Timp Temperatura Precipitaţii Vânt Presiune Umiditate
    00:00 +22°C° 0 mm 1 m/s 741 mmHg 84%
    01:00 +21°C° 0 mm 1 m/s 741 mmHg 84%
    02:00 +21°C° 0.1 mm 1 m/s 741 mmHg 84%
    03:00 +21°C° 0.1 mm 1 m/s 741 mmHg 85%
    04:00 +20°C° 0.1 mm 1 m/s 740 mmHg 86%
    05:00 +21°C° 0 mm 1 m/s 740 mmHg 83%
    06:00 +22°C° 0 mm 1 m/s 741 mmHg 80%
    07:00 +23°C° 0 mm 1 m/s 741 mmHg 78%
    08:00 +25°C° 0 mm 1 m/s 741 mmHg 72%
    09:00 +27°C° 0 mm 1 m/s 741 mmHg 65%
    10:00 +28°C° 0 mm 2 m/s 741 mmHg 59%
    11:00 +29°C° 0 mm 2 m/s 741 mmHg 55%
    12:00 +30°C° 0 mm 2 m/s 741 mmHg 51%
    13:00 +31°C° 0 mm 2 m/s 741 mmHg 47%
    14:00 +31°C° 0.1 mm 2 m/s 741 mmHg 48%
    15:00 +31°C° 0.1 mm 2 m/s 741 mmHg 49%
    16:00 +31°C° 0.1 mm 2 m/s 740 mmHg 49%
    17:00 +29°C° 0.2 mm 2 m/s 740 mmHg 55%
    18:00 +27°C° 0.2 mm 1 m/s 740 mmHg 61%
    19:00 +25°C° 0.2 mm 1 m/s 740 mmHg 67%
    20:00 +25°C° 0.3 mm 1 m/s 740 mmHg 69%
    21:00 +24°C° 0.3 mm 1 m/s 740 mmHg 70%
    22:00 +21°C° 0.3 mm 0 m/s 741 mmHg 72%
    23:00 +21°C° 0.1 mm 0 m/s 740 mmHg 73%

    27 August, Marţi

    Timp Temperatura Precipitaţii Vânt Presiune Umiditate
    00:00 +23°C° 0.1 mm 1 m/s 740 mmHg 74%
    01:00 +23°C° 0.1 mm 1 m/s 740 mmHg 74%
    02:00 +22°C° 0.4 mm 1 m/s 740 mmHg 75%
    03:00 +22°C° 0.4 mm 1 m/s 740 mmHg 77%
    04:00 +22°C° 0.4 mm 1 m/s 740 mmHg 78%
    05:00 +23°C° 0.1 mm 1 m/s 740 mmHg 76%
    06:00 +24°C° 0.1 mm 1 m/s 740 mmHg 74%
    07:00 +25°C° 0.1 mm 1 m/s 741 mmHg 73%
    08:00 +26°C° 0 mm 1 m/s 741 mmHg 67%
    09:00 +28°C° 0 mm 1 m/s 741 mmHg 60%
    10:00 +30°C° 0 mm 2 m/s 741 mmHg 54%
    11:00 +30°C° 0.1 mm 2 m/s 741 mmHg 51%
    12:00 +31°C° 0.1 mm 2 m/s 741 mmHg 48%
    13:00 +32°C° 0.1 mm 2 m/s 741 mmHg 45%
    14:00 +32°C° 0.1 mm 2 m/s 740 mmHg 46%
    15:00 +32°C° 0.1 mm 2 m/s 740 mmHg 47%
    16:00 +32°C° 0.1 mm 2 m/s 740 mmHg 48%
    17:00 +30°C° 0 mm 2 m/s 740 mmHg 53%
    18:00 +28°C° 0 mm 2 m/s 740 mmHg 58%
    19:00 +26°C° 0 mm 1 m/s 739 mmHg 63%
    20:00 +26°C° 0.3 mm 1 m/s 740 mmHg 65%
    21:00 +25°C° 0.3 mm 1 m/s 740 mmHg 67%
    22:00 +24°C° 0.3 mm 1 m/s 740 mmHg 69%
    23:00 +24°C° 0.1 mm 1 m/s 740 mmHg 70%

    28 August, Miercuri

    Timp Temperatura Precipitaţii Vânt Presiune Umiditate
    00:00 +24°C° 0.1 mm 1 m/s 739 mmHg 70%
    01:00 +23°C° 0.1 mm 1 m/s 739 mmHg 71%
    02:00 +23°C° 0 mm 1 m/s 739 mmHg 72%
    03:00 +23°C° 0 mm 1 m/s 739 mmHg 73%
    04:00 +22°C° 0 mm 1 m/s 739 mmHg 74%
    05:00 +23°C° 0 mm 2 m/s 739 mmHg 73%
    06:00 +24°C° 0 mm 2 m/s 739 mmHg 71%
    07:00 +25°C° 0 mm 2 m/s 739 mmHg 70%
    08:00 +27°C° 0 mm 2 m/s 739 mmHg 62%
    09:00 +29°C° 0 mm 3 m/s 739 mmHg 55%
    10:00 +32°C° 0 mm 4 m/s 739 mmHg 47%
    11:00 +32°C° 0 mm 4 m/s 739 mmHg 45%
    12:00 +33°C° 0 mm 4 m/s 738 mmHg 44%
    13:00 +33°C° 0 mm 4 m/s 738 mmHg 42%
    14:00 +33°C° 0 mm 4 m/s 738 mmHg 43%
    15:00 +33°C° 0 mm 4 m/s 737 mmHg 44%
    16:00 +33°C° 0 mm 3 m/s 737 mmHg 45%
    17:00 +30°C° 0 mm 3 m/s 737 mmHg 50%
    18:00 +28°C° 0 mm 2 m/s 737 mmHg 54%
    19:00 +27°C° 0 mm 2 m/s 737 mmHg 59%
    20:00 +26°C° 0 mm 2 m/s 737 mmHg 60%
    21:00 +25°C° 0 mm 2 m/s 737 mmHg 61%
    22:00 +25°C° 0 mm 2 m/s 737 mmHg 62%
    23:00 +24°C° 0 mm 2 m/s 737 mmHg 63%

    29 August, Joi

    Timp Temperatura Precipitaţii Vânt Presiune Umiditate
    00:00 +24°C° 0 mm 2 m/s 736 mmHg 64%
    01:00 +23°C° 0 mm 2 m/s 736 mmHg 65%
    02:00 +23°C° 0 mm 2 m/s 736 mmHg 65%
    03:00 +23°C° 0 mm 2 m/s 736 mmHg 66%
    04:00 +23°C° 0 mm 2 m/s 736 mmHg 66%
    05:00 +23°C° 0 mm 2 m/s 736 mmHg 66%
    06:00 +24°C° 0 mm 2 m/s 736 mmHg 65%
    07:00 +25°C° 0 mm 2 m/s 736 mmHg 65%
    08:00 +27°C° 0 mm 2 m/s 736 mmHg 57%
    09:00 +29°C° 0 mm 3 m/s 736 mmHg 50%
    10:00 +31°C° 0 mm 3 m/s 737 mmHg 42%
    11:00 +32°C° 0 mm 4 m/s 737 mmHg 40%
    12:00 +33°C° 0 mm 4 m/s 736 mmHg 39%
    13:00 +33°C° 0 mm 4 m/s 736 mmHg 37%
    14:00 +33°C° 0 mm 4 m/s 736 mmHg 39%
    15:00 +33°C° 0 mm 3 m/s 736 mmHg 41%
    16:00 +31°C° 0 mm 3 m/s 736 mmHg 43%
    17:00 +30°C° 0 mm 3 m/s 736 mmHg 48%
    18:00 +28°C° 0 mm 2 m/s 736 mmHg 53%
    19:00 +26°C° 0 mm 2 m/s 736 mmHg 58%
    20:00 +25°C° 0 mm 2 m/s 736 mmHg 63%
    21:00 +24°C° 0 mm 2 m/s 736 mmHg 67%
    22:00 +23°C° 0 mm 2 m/s 736 mmHg 72%
    23:00 +21°C° 0 mm 2 m/s 736 mmHg 73%
    Arată mai mult